SCP
0 0 0 0 0 0 0 0 0 0 0 0 0 0 0 0 0 0 0 0 0 0 0 0 0 0 0 0 0 0 0 0 0 0 0 0 0 0 0 0 0 0 0 0
0 0 0 0 0 0 0 0 0 0 0 0 0 0 0 0 0 0 0 0 0 0 0 0 0 0 0 0 0 0 0 0 0 0 0 0 0 0 0 0 0 0 0 0
0 0 0 0 0 0 0 0 0 0 0 0 0 0 0 0 0 0 0 0 0 0 0 0 0 0 0 0 0 0 0 0 0 0 0 0 0 0 0 0 0 0 0 0
0 0 0 0 0 0 0 0 0 0 0 0 0 0 0 0 0 0 0 0 0 0 0 0 0 0 0 1 1 0 0 0 0 0 0 0 0 0 0 0 0 0 0 0
0 0 0 0 0 0 0 0 0 0 0 0 0 0 0 0 0 0 0 0 0 0 0 0 0 0 1 1 1 1 1 0 0 0 0 0 0 0 0 0 0 0 0 0
0 0 0 0 0 0 0 0 0 0 0 0 0 0 0 0 0 0 0 0 0 0 0 0 0 0 1 1 1 1 1 1 0 0 0 0 0 0 0 0 0 0 0 0
0 0 0 0 0 0 0 0 0 0 0 0 0 0 0 0 0 0 0 0 0 1 0 0 0 0 0 1 1 1 1 1 1 0 0 0 0 0 0 0 0 0 0 0
0 0 0 0 0 0 0 0 0 0 0 0 0 0 0 0 0 0 0 0 1 1 1 0 0 0 0 1 1 1 1 1 1 1 0 0 0 0 0 0 0 0 0 0
0 0 0 0 0 0 0 0 0 0 0 0 0 0 0 0 0 0 0 0 1 0 0 0 0 0 0 1 1 1 1 1 1 1 1 0 0 0 0 0 0 0 0 0
0 0 0 0 0 0 0 0 0 0 0 0 0 0 0 0 0 0 0 0 0 0 0 0 0 0 0 1 1 1 1 1 1 1 1 0 0 0 0 0 0 0 0 0
0 0 0 0 0 0 0 0 0 0 0 0 0 0 0 0 0 0 0 0 0 0 0 0 0 0 1 1 1 1 1 1 1 1 1 1 0 0 0 0 0 0 0 0
0 0 0 0 0 0 0 0 0 0 0 0 0 0 0 0 0 0 0 0 0 0 0 0 0 0 1 1 1 1 1 1 1 1 1 1 0 0 0 0 0 0 0 0
0 0 0 0 0 0 0 0 0 0 0 0 0 0 0 0 0 0 0 0 0 0 0 0 0 0 1 1 1 1 1 1 1 1 1 1 1 0 0 0 0 0 0 0
0 0 0 0 0 0 0 0 0 0 0 0 0 0 0 0 0 0 0 0 0 0 0 0 0 1 1 1 1 1 1 1 1 1 1 1 1 1 0 0 0 0 0 0
0 0 0 0 0 0 0 0 0 0 0 0 0 0 0 0 0 0 0 0 0 1 1 1 0 0 0 0 0 0 0 0 0 1 1 1 1 1 1 0 0 0 0 0
0 0 0 0 0 0 0 0 0 0 0 0 0 0 0 0 0 0 0 0 0 1 1 1 0 0 0 0 0 0 0 0 0 0 0 1 1 1 1 0 0 0 0 0
0 0 0 0 0 0 0 0 0 0 0 0 0 0 0 0 0 0 0 0 0 1 1 1 1 1 1 0 0 0 0 0 0 0 0 0 1 1 1 1 0 0 0 0
0 0 0 0 0 0 0 0 0 0 0 0 0 0 0 0 0 0 0 0 0 0 1 1 1 1 1 1 0 0 0 0 0 0 0 0 1 1 1 1 0 0 0 0
0 0 0 0 0 0 0 0 0 0 0 0 0 0 0 0 0 0 0 0 0 0 0 0 0 0 1 0 0 0 0 0 0 0 0 0 1 1 1 1 1 0 0 0
0 0 0 0 0 0 0 0 0 0 0 0 0 0 0 0 0 0 0 0 0 0 0 0 0 0 0 0 0 1 0 0 0 0 1 1 1 1 1 1 1 1 0 0
0 0 0 0 0 0 0 0 0 0 0 0 0 0 0 0 0 0 0 1 0 0 0 0 0 0 0 0 1 1 1 1 1 1 1 1 1 1 1 1 1 1 1 1
0 0 0 0 0 0 0 0 0 0 0 0 0 0 0 0 0 0 1 1 1 0 0 1 0 0 0 1 1 1 1 1 1 1 1 1 1 1 1 1 0 1 1 1
0 0 0 0 0 0 0 0 0 0 0 0 0 0 0 0 1 1 1 1 1 1 1 1 1 1 1 1 1 1 1 1 1 1 1 1 1 1 1 0 0 0 1 1
0 0 0 0 0 0 0 0 0 0 0 0 0 0 0 0 1 1 1 1 1 1 1 1 1 1 1 1 0 0 1 1 1 1 1 1 1 1 0 0 0 0 0 0
0 0 0 0 0 0 0 0 0 0 0 0 0 0 0 0 1 1 1 1 1 1 1 1 1 1 1 1 0 0 0 1 1 1 1 1 1 1 1 0 0 0 0 0
0 0 0 0 0 0 0 0 0 0 0 0 0 0 0 1 1 1 1 1 1 1 1 1 1 1 1 1 0 0 0 1 1 1 1 1 1 1 0 0 0 0 0 0
Wind_Speed
1 2 4 7 6 6 4 3 4 5 3 3 3 5 7 7 7 8 8 8 9 9 8 8 8 8 7 6 6 5 4 3 3 2 2 1 1 1 0 1 2 3 3 3
3 5 10 7 5 4 3 3 3 4 1 3 3 3 4 6 8 9 9 9 10 8 6 7 7 7 7 7 6 6 5 4 4 3 2 2 2 1 1 1 1 2 3 2
7 9 6 5 5 4 5 5 5 3 2 2 4 2 2 2 2 5 7 8 9 11 11 10 9 7 7 8 8 7 6 5 4 3 2 1 1 1 1 1 0 1 2 2
6 8 6 6 6 5 6 7 6 3 2 1 2 2 5 3 2 3 5 6 9 10 10 10 9 8 8 8 7 7 6 5 4 4 3 4 3 2 2 2 1 1 2 2
7 6 5 6 8 7 8 6 4 3 2 1 1 3 5 1 2 4 5 7 9 10 10 10 10 10 9 8 7 6 5 5 4 4 4 4 3 2 1 1 1 1 1 1
8 7 6 7 6 6 4 2 3 4 5 1 4 3 5 5 8 7 6 7 8 9 8 7 7 6 6 6 7 6 6 4 4 4 4 4 4 3 2 2 1 1 1 1
6 7 5 3 2 4 2 6 4 4 4 5 3 2 7 8 8 8 7 7 7 8 7 6 5 6 6 6 6 6 6 5 4 4 4 4 4 3 3 3 2 2 1 1
3 7 5 3 5 5 3 8 7 4 4 5 2 2 5 4 5 6 5 6 7 7 7 7 7 7 7 7 7 7 7 6 5 4 3 3 3 2 1 2 2 2 2 2
4 6 6 4 3 6 2 3 8 7 2 0 3 3 4 1 2 3 5 6 6 7 8 7 7 7 7 8 8 8 7 6 5 4 4 3 3 3 2 2 2 2 2 1
6 4 6 4 2 1 5 6 6 5 3 1 2 3 4 4 3 3 5 6 6 6 6 7 6 6 6 6 6 7 6 6 5 5 4 4 3 3 3 2 1 1 1 1
5 4 5 3 2 3 1 2 5 4 6 6 3 6 6 7 5 5 6 6 7 7 7 6 6 6 5 5 5 5 5 5 4 4 4 4 3 3 2 2 2 1 1 1
4 5 3 6 5 4 4 5 7 5 3 4 4 7 3 4 4 5 6 5 5 6 7 7 6 6 5 4 5 5 5 5 4 4 4 4 3 3 3 2 2 1 1 1
4 5 1 7 8 4 1 1 4 5 5 4 4 6 1 2 3 4 5 5 5 5 5 5 5 5 5 5 5 5 4 4 4 4 4 3 3 3 3 3 3 2 2 1
5 5 6 8 7 4 3 2 2 5 3 3 5 5 3 3 4 3 3 4 5 5 5 5 4 4 4 5 5 5 4 4 3 4 4 4 4 4 4 3 3 3 2 2
5 3 3 5 5 2 2 3 2 3 6 7 7 7 8 7 7 6 5 5 6 6 6 6 6 5 5 5 4 4 4 4 4 3 4 4 3 3 3 3 3 3 3 3
3 2 1 2 2 1 2 2 1 2 3 5 4 3 5 4 3 4 5 7 7 7 7 7 6 6 6 5 5 4 4 4 4 3 4 4 3 3 3 3 3 2 3 3
1 3 2 3 4 2 3 3 2 2 2 6 6 6 5 4 4 6 6 7 8 7 6 7 6 6 6 5 5 5 4 4 3 3 3 3 3 3 4 4 3 3 3 3
5 3 3 2 1 3 6 3 4 4 1 2 4 5 6 6 4 3 4 6 6 6 6 5 5 5 4 4 3 3 3 3 3 2 2 2 2 3 3 3 3 4 3 3
6 6 3 3 2 3 4 2 2 4 0 2 6 6 5 5 4 2 1 4 6 6 6 6 5 5 5 4 4 4 3 3 2 2 2 2 3 3 3 3 4 3 3 3
4 5 5 3 3 4 5 4 1 6 0 1 4 6 6 5 3 3 2 4 4 5 5 5 4 4 4 4 4 4 3 2 2 2 2 2 2 3 3 4 3 2 2 3
3 3 3 3 3 4 5 3 3 3 6 3 3 4 5 4 5 5 3 4 5 5 5 5 5 4 3 3 4 4 3 2 2 2 2 1 2 2 3 3 2 2 2 1
3 2 2 3 2 5 4 2 3 5 3 3 3 4 4 4 4 3 4 4 5 4 4 5 4 3 2 3 4 3 2 2 1 1 1 1 2 2 1 1 1 1 1 1
1 3 4 4 5 5 2 2 3 4 4 3 3 4 6 5 4 5 4 3 3 4 3 4 4 3 1 2 3 3 2 1 0 0 0 1 1 1 1 1 1 1 1 1
3 3 3 2 2 2 2 4 3 4 4 2 3 5 6 6 6 5 4 3 2 2 3 3 4 3 1 1 2 2 2 1 1 1 0 1 0 1 1 1 1 1 1 1
2 2 2 1 2 3 4 3 2 2 4 5 5 5 5 6 5 5 4 3 2 2 2 3 4 3 3 2 2 2 2 2 1 1 0 1 0 1 1 1 1 2 3 4
2 2 2 4 4 2 4 2 1 2 4 5 5 4 3 4 4 4 4 3 3 2 2 2 2 2 2 2 2 2 2 2 2 1 1 1 1 1 1 1 2 3 3 5
Wind_Direction
259 109 240 243 224 223 240 252 266 261 233 140 166 166 177 179 169 168 172 171 175 183 183 171 169 163 160 159 155 156 151 159 148 137 143 152 204 223 148 166 158 161 162 161
358 257 240 241 239 241 243 255 267 288 247 144 157 176 183 171 179 176 176 178 179 178 172 173 171 169 164 165 167 164 167 171 171 170 173 172 172 190 180 168 147 161 164 171
225 248 247 248 237 243 252 220 226 231 316 57 96 12 280 244 178 176 178 179 177 175 176 179 176 176 170 172 175 175 177 177 179 166 136 116 78 35 33 39 227 217 181 174
251 255 252 247 237 218 252 241 210 188 117 266 141 200 268 235 236 200 197 185 187 184 177 178 178 178 178 180 177 173 175 175 177 163 150 151 156 180 211 205 204 225 200 184
246 249 246 237 233 212 228 234 188 170 132 9 349 132 272 226 224 237 210 190 186 182 179 179 179 181 182 177 172 170 170 177 174 165 166 165 176 190 189 169 179 222 244 214
245 252 224 229 245 226 214 55 33 54 75 346 255 157 253 221 211 215 217 193 185 182 179 179 178 174 174 170 168 166 164 177 181 174 173 175 181 176 161 179 189 218 244 249
292 287 261 223 278 303 89 91 39 6 12 255 253 147 240 230 210 195 195 181 173 169 169 168 168 170 167 169 165 162 159 167 174 177 186 191 188 177 185 195 188 186 193 226
242 281 262 234 193 205 208 137 154 185 216 274 338 211 263 240 194 176 174 166 159 159 166 167 174 171 168 175 177 169 170 175 176 177 192 196 175 163 179 190 183 187 197 213
194 257 273 254 218 162 182 176 168 142 161 227 297 292 311 6 132 150 148 143 156 165 169 170 171 168 168 174 179 179 176 178 182 179 180 176 163 154 166 186 194 192 205 199
172 240 280 275 16 328 169 163 99 112 146 233 287 263 228 224 181 158 155 158 172 168 169 166 166 172 174 173 168 167 172 176 175 179 181 173 173 174 176 163 172 182 197 193
160 177 287 339 189 216 40 85 112 126 152 159 210 260 226 200 184 164 170 172 169 169 168 162 165 171 164 160 161 158 163 165 172 181 179 179 185 185 180 181 195 189 182 182
177 142 243 263 254 189 161 166 144 151 210 166 169 257 260 184 183 169 165 170 160 164 169 167 161 155 154 158 158 158 159 173 184 184 176 182 185 178 174 190 199 186 190 210
148 120 63 335 335 345 54 166 149 136 128 154 169 251 272 131 154 167 156 162 156 158 159 156 152 153 161 163 161 159 162 173 180 173 173 182 188 185 193 203 203 195 195 210
124 123 164 200 220 230 262 277 167 121 143 191 209 212 235 190 181 180 162 159 160 165 165 159 161 165 172 170 163 160 162 164 160 163 170 189 201 201 207 210 205 201 197 197
98 142 199 219 227 202 225 231 203 166 177 177 212 205 216 203 185 182 170 159 159 164 167 169 174 180 178 174 165 165 167 166 165 170 184 200 206 201 202 207 214 215 213 215
74 136 165 298 290 0 310 271 195 166 172 168 164 227 225 190 149 160 170 167 170 174 169 172 170 168 171 170 166 165 171 177 169 172 196 203 195 198 209 215 215 215 225 230
102 119 109 263 291 21 300 261 196 167 190 165 190 207 175 155 164 180 181 171 170 175 168 164 165 163 168 177 172 170 177 169 168 184 198 198 197 204 217 224 217 217 225 233
156 127 137 187 46 233 248 236 141 129 172 171 156 169 162 165 178 177 167 164 172 175 167 160 157 157 159 157 164 166 154 150 160 176 197 205 197 212 220 217 221 224 224 229
154 143 133 133 174 259 292 307 151 131 193 179 152 160 153 145 96 21 188 156 166 171 162 161 161 154 145 148 165 148 146 148 156 181 207 216 207 216 220 222 230 226 221 236
73 109 125 138 157 217 249 280 163 107 231 277 143 151 154 120 119 247 219 152 147 145 147 143 135 117 134 161 156 144 152 154 183 204 221 230 215 216 223 224 229 232 222 233
28 48 121 156 186 248 263 293 64 133 224 230 148 143 138 151 186 208 171 141 141 136 134 127 121 128 147 150 136 137 146 188 211 216 231 242 233 229 225 226 233 227 223 232
164 136 169 137 157 247 288 46 142 201 192 147 131 134 123 131 132 127 125 128 124 120 117 121 117 120 131 130 126 135 187 226 223 210 235 248 236 235 238 218 253 231 209 224
159 181 182 174 205 242 276 152 168 146 132 138 133 130 125 122 125 120 117 117 124 131 131 126 123 118 104 115 128 142 227 238 150 74 287 269 267 258 235 182 195 211 199 229
333 17 67 47 329 345 28 70 75 103 113 121 123 129 128 131 132 127 126 121 121 134 131 125 123 127 138 149 148 181 208 176 116 103 334 294 281 295 292 244 215 206 223 248
271 4 33 356 294 11 8 31 55 70 91 91 88 99 125 130 132 135 135 140 142 143 141 138 145 164 186 191 199 212 192 149 138 154 277 292 280 222 252 261 242 233 231 224
260 184 175 231 243 217 252 272 27 86 107 113 105 85 86 129 143 141 148 159 157 151 136 135 154 177 201 197 213 228 200 169 171 201 238 251 253 250 256 287 317 307 273 264